軌道要素
Epoch 2022 Jan. 21.0 TT = JDT 2459600.5
T 2020 Oct. 25.67576 TT Rudenko
q 1.2680781 (2000.0) P Q
n 0.00705009 Peri. 328.47202 +0.72845695 -0.57196486
a 26.9364160 Node 71.22596 +0.68165563 +0.55006012
e 0.9529233 Incl. 23.47158 +0.06852785 +0.60851464
P 140
From 2435 observations 2020 June 27-2021 June 10, mean residual 0".5.
|